TimeCDT,TemperatureF,Dew PointF,Humidity,Sea Level PressureIn,VisibilityMPH,Wind Direction,Wind SpeedMPH,Gust SpeedMPH,PrecipitationIn,Events,Conditions,WindDirDegrees,DateUTC
12:53 AM,59.0,46.9,64,29.60,10.0,SSE,12.7,-,N/A,,Clear,160,2013-09-30 05:53:00
1:53 AM,60.1,46.9,62,29.59,10.0,SSE,12.7,-,N/A,,Clear,160,2013-09-30 06:53:00
2:53 AM,60.1,46.0,60,29.59,10.0,South,10.4,-,N/A,,Clear,170,2013-09-30 07:53:00
3:53 AM,59.0,46.9,64,29.57,10.0,SSE,8.1,-,N/A,,Clear,160,2013-09-30 08:53:00
4:53 AM,55.9,46.9,72,29.58,10.0,South,6.9,-,N/A,,Clear,180,2013-09-30 09:53:00
5:53 AM,54.0,46.9,77,29.58,10.0,South,6.9,-,N/A,,Clear,170,2013-09-30 10:53:00
6:53 AM,52.0,46.0,80,29.58,10.0,SSE,5.8,-,N/A,,Clear,150,2013-09-30 11:53:00
7:53 AM,51.1,46.0,83,29.58,10.0,SSE,6.9,-,N/A,,Clear,150,2013-09-30 12:53:00
8:53 AM,55.0,46.9,74,29.57,10.0,SSE,8.1,-,N/A,,Clear,160,2013-09-30 13:53:00
9:53 AM,57.9,48.9,72,29.59,10.0,South,5.8,-,N/A,,Clear,190,2013-09-30 14:53:00
10:53 AM,64.0,48.9,58,29.57,10.0,South,10.4,-,N/A,,Clear,190,2013-09-30 15:53:00
11:53 AM,66.9,50.0,54,29.57,10.0,Calm,Calm,-,N/A,,Clear,0,2013-09-30 16:53:00
12:53 PM,71.1,51.1,49,29.57,10.0,Calm,Calm,-,N/A,,Clear,0,2013-09-30 17:53:00
1:53 PM,73.9,51.1,45,29.56,10.0,South,5.8,-,N/A,,Clear,190,2013-09-30 18:53:00
2:53 PM,75.0,48.9,40,29.55,10.0,SSW,9.2,-,N/A,,Clear,210,2013-09-30 19:53:00
3:53 PM,75.0,52.0,44,29.55,10.0,South,8.1,-,N/A,,Clear,170,2013-09-30 20:53:00
4:53 PM,73.0,50.0,44,29.55,10.0,South,9.2,-,N/A,,Clear,190,2013-09-30 21:53:00
5:53 PM,72.0,52.0,49,29.55,10.0,South,10.4,-,N/A,,Clear,170,2013-09-30 22:53:00
6:53 PM,69.1,53.1,57,29.56,10.0,SSE,8.1,-,N/A,,Partly Cloudy,150,2013-09-30 23:53:00
7:53 PM,66.9,54.0,63,29.58,10.0,SSE,9.2,-,N/A,,Mostly Cloudy,150,2013-10-01 00:53:00
8:53 PM,64.0,53.1,67,29.58,10.0,SE,9.2,-,N/A,,Overcast,140,2013-10-01 01:53:00
9:53 PM,64.0,53.1,67,29.56,10.0,SE,6.9,-,N/A,,Mostly Cloudy,130,2013-10-01 02:53:00
10:53 PM,61.0,53.1,75,29.54,10.0,SE,8.1,-,N/A,,Clear,140,2013-10-01 03:53:00
11:53 PM,62.1,53.1,72,29.52,10.0,SSE,9.2,-,N/A,,Clear,150,2013-10-01 04:53:00